Location: La Pernelle
(49.6188°N, 1.2999°W)
Time: 16:32:32
(UTC+00:00)

Cosmos 1626 - Pass Details

Date: 27 October 2021
Orbit: 487 x 492 km, 82.5° (Epoch: 30 November)

Event Time Altitude Azimuth Distance (km) Brightness Sun altitude
Exits shadow 04:12:12 41° 43° (NE) 728 3.2 -25.4°
Drops below altitude 10° 04:14:53 10° 18° (NNE) 1,700 5.1 -24.9°
Sets 04:17:01 0° 14° (NNE) 2,588 6.1 -24.6°
